Stewartville, MN

2:27 AM CDT on September 01, 2016 (GMT -0500)
Rochester International

Weather History for KRST - June, 2013

Change the Weather History Date:

Tuesday, June 4, 2013

  Actual Average Record
Temperature  
Mean Temperature 55 °F 64 °F  
Max Temperature 59 °F 75 °F 93 °F (1934)
Min Temperature 51 °F 54 °F 32 °F (1945)
Degree Days  
Heating Degree Days 10 3  
Month to date heating degree days 35 15  
Since 1 June heating degree days 35  
Since 1 July heating degree days 7800 7685  
Cooling Degree Days 0 2  
Month to date cooling degree days 0 8  
Year to date cooling degree days 30 42  
Since 1 June cooling degree days 0  
Growing Degree Days 4 (Base 50)    
Moisture  
Dew Point 50 °F    
Average Humidity 78    
Maximum Humidity 93    
Minimum Humidity 62    
Precipitation  
Precipitation 0.23 in 0.15 in 4.02 in (1958)
Month to date precipitation 0.27 0.59  
Year to date precipitation 24.17 11.03  
Snow  
Snow 0.00 in 0.00 in 0.00 in (2012)
Month to date snowfall 0.0 0.0  
Since 1 June snowfall 0.0  
Since 1 July snowfall 74.0 51.9  
Snow Depth 0.00 in    
Sea Level Pressure  
Sea Level Pressure 30.09 in    
Wind  
Wind Speed 12 mph (SE)    
Max Wind Speed 22 mph    
Max Gust Speed 29 mph    
Visibility 9 miles    
Events Rain , Thunderstorm    
T = Trace of Precipitation, MM = Missing Value Source: NWS Daily Summary

Daily Weather History Graph

Daily Weather History Graph

Search for Another Location

Airport or City:

Trip Planner

Search our weather history database for the weather conditions in past years. The results will help you decide how hot, cold, wet, or windy it might be!

Date:

Astronomy

Jun. 04, 2013 Rise Set
Actual Time 5:28 AM CDT 8:48 PM CDT
Civil Twilight 4:53 AM CDT 9:23 PM CDT
Nautical Twilight 4:07 AM CDT 10:10 PM CDT
Astronomical Twilight 3:10 AM CDT 11:07 PM CDT
Moon 3:05 AM CDT (6/4) 5:12 PM CDT (6/4)
Length of Visible Light 16h 30m
Length of Day
15h 19m
Waning Crescent, 14% of the Moon is Illuminated
Jun 4
Waning Crescent
Jun 8
New
Jun 16
First Quarter
Jun 23
Full
Jun 29
Last Quarter

Hourly Weather History & Observations

Time (CDT) Temp. Dew Point Humidity Pressure Visibility Wind Dir Wind Speed Gust Speed Precip Events Conditions
12:54 AM 59.0 °F 46.9 °F 64% 30.05 in 10.0 mi ESE 9.2 mph - N/A   Overcast
1:54 AM 59.0 °F 46.9 °F 64% 30.02 in 10.0 mi SE 11.5 mph - N/A   Overcast
2:54 AM 57.9 °F 46.9 °F 67% 30.05 in 10.0 mi SSE 8.1 mph - N/A   Overcast
3:54 AM 57.9 °F 48.0 °F 70% 30.07 in 10.0 mi South 8.1 mph - 0.00 in   Overcast
4:36 AM 57.2 °F 48.2 °F 72% 30.07 in 10.0 mi SSE 4.6 mph - 0.00 in Rain , Thunderstorm Light Rain
4:54 AM 55.9 °F 50.0 °F 80% 30.07 in 6.0 mi South 6.9 mph - 0.02 in Rain Heavy Rain
5:07 AM 55.4 °F 50.0 °F 82% 30.07 in 10.0 mi SE 5.8 mph - 0.01 in Rain , Thunderstorm Light Rain
5:22 AM 55.4 °F 51.8 °F 88% 30.08 in 10.0 mi Calm Calm - 0.02 in Rain Light Rain
5:54 AM 55.0 °F 52.0 °F 89% 30.08 in 10.0 mi ESE 5.8 mph - 0.03 in Rain Light Rain
6:54 AM 55.0 °F 51.1 °F 86% 30.06 in 8.0 mi SE 11.5 mph - 0.02 in Rain Light Rain
7:54 AM 55.0 °F 51.1 °F 86% 30.08 in 9.0 mi SSE 15.0 mph - 0.01 in Rain Light Rain
8:54 AM 55.9 °F 50.0 °F 80% 30.07 in 10.0 mi SSE 17.3 mph - 0.01 in   Overcast
9:54 AM 55.9 °F 48.9 °F 77% 30.09 in 10.0 mi South 13.8 mph - 0.00 in Rain Light Rain
10:54 AM 57.0 °F 50.0 °F 77% 30.08 in 10.0 mi SSE 15.0 mph - 0.00 in Rain Light Rain
11:54 AM 55.9 °F 50.0 °F 80% 30.10 in 10.0 mi SSE 9.2 mph - 0.01 in   Overcast
12:54 PM 57.0 °F 51.1 °F 81% 30.10 in 10.0 mi SE 8.1 mph - 0.00 in Rain Light Rain
1:54 PM 57.9 °F 52.0 °F 81% 30.12 in 10.0 mi ENE 5.8 mph - 0.00 in Rain Light Rain
2:54 PM 57.0 °F 53.1 °F 87% 30.11 in 9.0 mi East 11.5 mph - 0.01 in Rain Light Rain
3:37 PM 57.2 °F 53.6 °F 88% 30.11 in 6.0 mi ESE 10.4 mph - 0.00 in Rain Light Rain
3:44 PM 57.2 °F 53.6 °F 88% 30.11 in 7.0 mi ESE 9.2 mph - 0.00 in Rain Light Rain
3:54 PM 55.9 °F 53.1 °F 90% 30.12 in 7.0 mi ESE 9.2 mph - 0.00 in Rain Light Rain
4:32 PM 55.4 °F 51.8 °F 88% 30.09 in 5.0 mi SSE 19.6 mph 25.3 mph 0.04 in Rain Light Rain
4:40 PM 53.6 °F 51.8 °F 94% 30.09 in 5.0 mi SSE 18.4 mph - 0.05 in Rain Rain
4:51 PM 53.6 °F 51.8 °F 94% 30.09 in 6.0 mi SSE 17.3 mph 23.0 mph 0.06 in Rain Light Rain
4:54 PM 54.0 °F 50.0 °F 86% 30.10 in 6.0 mi SSE 17.3 mph - 0.06 in Rain Rain
5:34 PM 53.6 °F 51.8 °F 94% 30.09 in 10.0 mi SE 13.8 mph - 0.03 in Rain Light Rain
5:54 PM 53.1 °F 48.9 °F 86% 30.11 in 10.0 mi SE 15.0 mph - 0.03 in Rain Light Rain
6:54 PM 52.0 °F 48.0 °F 86% 30.11 in 10.0 mi ESE 12.7 mph - 0.00 in Rain Light Rain
7:54 PM 52.0 °F 48.0 °F 86% 30.09 in 10.0 mi SE 18.4 mph 24.2 mph 0.00 in Rain Light Rain
8:54 PM 51.1 °F 48.0 °F 89% 30.10 in 10.0 mi ESE 12.7 mph - 0.03 in   Mostly Cloudy
9:54 PM 52.0 °F 48.9 °F 89% 30.12 in 10.0 mi ESE 10.4 mph - N/A   Overcast
10:54 PM 52.0 °F 48.9 °F 89% 30.11 in 10.0 mi ESE 11.5 mph - N/A   Overcast
11:51 PM 53.6 °F 51.8 °F 94% 30.07 in 7.0 mi ESE 15.0 mph - 0.00 in   Overcast
11:54 PM 53.1 °F 51.1 °F 93% 30.08 in 7.0 mi ESE 12.7 mph - 0.00 in   Overcast